Volver al catálogo

STARLINK-36863

ActivoComunicacionesVLEO
NORAD 67949·PAYLOAD·🇺🇸 United States

Lanzado Feb 24, 2026 desde Vandenberg Space Force Base

Loading…

Próximos Pases (próximas 24 horas)

TLE

ActualizadoSource: CelesTrak SupGP

Época: Sep 15, 2026, 02:58 UTC

1 67949C 26037T   26258.12409722 -.00042910  00000+0 -15546-2 0  2581
2 67949  43.0029 200.4685 0001277 275.1535 210.4465 15.27590970    13

Sigue STARLINK-36863 en tiempo real con AllMySat

Download on the App Store